User: anonymous   Login
Location: Boda
(47.1872°N, 9.5454°E)
Time: 01:20:46
(UTC+00:00)
Language:

Cosmos 1725 Rocket - Orbit

View from above orbital plane
View from above orbital plane
View from above satellite
View from above satellite

Ground track
Ground track

The orbit data is extracted from the following two-line orbital elements,

1 16494U 86005B   21208.54933348 -.00000044  00000-0 -60597-4 0  9996
2 16494  82.9301  35.0568 0019609   3.5489  50.2595 13.76517247784200
Epoch (UTC): 27 July 2021 13:11:02
Eccentricity: 0.0019609
inclination: 82.9301°
perigee height: 962 km
apogee height: 990 km
right ascension of ascending node: 35.0568°
argument of perigee: 3.5489°
revolutions per day: 13.76517247
mean anomaly at epoch: 50.2595°
orbit number at epoch: 78420

The dashed part of the orbit path shows where the satellite is in the earth's shadow,  

DLR